Regional Weather Roundup
Issued by NWS

Home | Current Version | Previous Version | Text Only | Print | Product List | Glossary Off
Versions: 1 2 3 4 5 6 7 8 9 10 11 12 13 14 15 16 17 18 19 20 21 22 23 24 25 26 27 28 29 30 31 32 33 34 35 36 37 38 39 40 41 42 43 44 45 46 47 48 49 50

000
ASUS43 KIND 222300
RWRIN

WEATHER ROUNDUP FOR INDIANA
NATIONAL WEATHER SERVICE INDIANAPOLIS IN
700 PM EDT SAT JUL 22 2017

NOTE: "FAIR" INDICATES FEW OR NO CLOUDS BELOW 12,000 FEET WITH NO
SIGNIFICANT WEATHER AND/OR OBSTRUCTIONS TO VISIBILITY.

* - STATION DOES NOT REPORT WEATHER SUCH AS PRECIPITATION OR FOG.

+ - STATION NOT QUALITY CONTROLLED BY THE NATIONAL WEATHER SERVICE.
    USE DATA WITH CAUTION...ESPECIALLY DEWPOINT AND RELATIVE
    HUMIDITY OBSERVATIONS.

INZ001>003-010>013-019-020-230000-
NORTHWEST INDIANA

CITY           SKY/WX    TMP DP  RH WIND       PRES   REMARKS
GARY /AIRPORT/ PTSUNNY   82  70  65 CALM      29.81S
MICHIGAN CITY+ SUNNY     79  68  69 N6        29.82S
MONTICELLO +   SUNNY     83  74  73 NW3       29.81S
RENSSELAER +   CLOUDY    82  72  69 SW5       29.82S

$$

LMZ046-743>745-230000-
SOUTHERN LAKE MICHIGAN

STATION/POSITION TIME  TEMP    WIND        PRES    WAVE
                       AIR SEA DIR/SP/G            HT
                 (UTC) (F)     (DEG/KT/KT) (MB)    (FT)
BURNS HARBOR     2240   78      50/  7/  8 1009.8S
MICHIGAN CITY    2230   80        CALM       N/A
5NW MICH CITY    2250   78 78     CALM       N/A     1

$$

INZ004-005-014>016-021>024-230000-
NORTH CENTRAL INDIANA

CITY           SKY/WX    TMP DP  RH WIND       PRES   REMARKS
GOSHEN         MOSUNNY   81  67  62 NW13      29.81S
SOUTH BEND     MOSUNNY   80  69  69 NW10      29.82S
WARSAW +       SUNNY     81  68  65 NW9       29.82S

$$

INZ006>009-017-018-025>027-230000-
NORTHEAST INDIANA

CITY           SKY/WX    TMP DP  RH WIND       PRES   REMARKS
FORT WAYNE     MOSUNNY   83  72  69 W7        29.81S
KENDALLVILLE + MOSUNNY   82  69  66 NW6       29.81S

$$

INZ028-029-035-036-043>045-051>053-230000-
WEST CENTRAL INDIANA

CITY           SKY/WX    TMP DP  RH WIND       PRES   REMARKS
GREENCASTLE +  CLOUDY    82  72  69 CALM      29.83F
LAFAYETTE      PTSUNNY   82  75  79 NW5       29.81F
TERRE HAUTE    CLOUDY    87  78  74 N8        29.80S HX 100

$$

INZ030>032-037>040-046>048-054>057-064-065-230000-
CENTRAL INDIANA

CITY           SKY/WX    TMP DP  RH WIND       PRES   REMARKS
COLUMBUS       CLOUDY    88  66  48 N7        29.82R
FRANKFORT +    CLOUDY    85  76  74 NW5       29.85S
GREENWOOD *+   CLOUDY   N/A N/A N/A N6        29.83S
INDIANAPOLIS   CLOUDY    84  72  67 N7        29.81F
-EAGLE CREEK   CLOUDY    85  73  67 N5        29.81F
KOKOMO +       MOSUNNY   83  72  69 NW8       29.83F
MT COMFORT *+  CLOUDY    84  72  65 NW7       29.84S
SHELBYVILLE    CLOUDY    85  72  65 N5        29.81S

$$

INZ033-034-041-042-049-050-058-059-230000-
EAST CENTRAL INDIANA

CITY           SKY/WX    TMP DP  RH WIND       PRES   REMARKS
MUNCIE         MOSUNNY   85  72  65 NW8       29.83R
RICHMOND +     PTSUNNY   81  72  74 NW8       29.85R

$$

INZ060-061-067>069-081>083-085>088-230000-
SOUTHWEST INDIANA

CITY           SKY/WX    TMP DP  RH WIND       PRES   REMARKS
EVANSVILLE     SUNNY     97  70  41 W14G23    29.81R HX 103
HUNTINGBURG *+ SUNNY     93  76  57 SW10      29.81F HX 105

$$

INZ062-063-066-070>080-084-089>092-230000-
SOUTH CENTRAL AND SOUTHEAST INDIANA

CITY           SKY/WX    TMP DP  RH WIND       PRES   REMARKS
BLOOMINGTON    MOSUNNY   90  73  57 W8        29.82S HX  98
MADISON *+     PTSUNNY   91  73  55 SW7       29.84S HX 100
SEYMOUR +      CLOUDY    93  75  55 SW8       29.80S HX 104

$$




USA.gov is the U.S. government's official web portal to all federal, state and local government web resources and services.